Elkins, WV

5:14 PM EDT on September 16, 2019 (GMT -0400)
Elkins-Randolph County

Weather History for KEKN - August, 2019

Change the Weather History Date:

Saturday, August 24, 2019

  Actual Average Record
Temperature  
Mean Temperature 66 °F 68 °F  
Max Temperature 77 °F 80 °F 91 °F (1993)
Min Temperature 55 °F 57 °F 40 °F (1951)
Degree Days  
Heating Degree Days 0 1  
Month to date heating degree days 2 9  
Since 1 June heating degree days 41 76  
Since 1 July heating degree days 2 21  
Cooling Degree Days 1 4  
Month to date cooling degree days 182 116  
Year to date cooling degree days 652 397  
Since 1 June cooling degree days 569 374  
Growing Degree Days 16 (Base 50)    
Moisture  
Dew Point 53 °F    
Average Humidity 77    
Maximum Humidity 93    
Minimum Humidity 38    
Precipitation  
Precipitation 0.00 in 0.12 in 1.49 in (1914)
Month to date precipitation 5.50 3.06  
Year to date precipitation 37.12 32.03  
Sea Level Pressure  
Sea Level Pressure 30.20 in    
Wind  
Wind Speed 1 mph ()    
Max Wind Speed 10 mph    
Max Gust Speed 13 mph    
Visibility 6.8 miles    
Events Fog    
T = Trace of Precipitation, MM = Missing Value Source: Averaged Metar Reports

Daily Weather History Graph

Daily Weather History Graph

Search for Another Location

Airport or City:

Astronomy

Aug. 24, 2019 Rise Set
Actual Time 6:40 AM EDT 8:02 PM EDT
Civil Twilight 6:13 AM EDT 8:29 PM EDT
Nautical Twilight 5:39 AM EDT 9:02 PM EDT
Astronomical Twilight 5:04 AM EDT 9:37 PM EDT
Moon 12:34 AM EDT (8/24) 3:14 PM EDT (8/24)
Length of Visible Light 14h 16m
Length of Day
13h 21m
Last Quarter, 39% of the Moon is Illuminated
Aug 24
Last Quarter
Aug 30
New
Sep 5
First Quarter
Sep 14
Full
Sep 21
Last Quarter

Hourly Weather History & Observations

Time (EDT) Temp. Dew Point Humidity Pressure Visibility Wind Dir Wind Speed Gust Speed Precip Events Conditions
12:28 AM 57.9 °F 55.9 °F 93% 30.19 in 2.0 mi Calm Calm - N/A   Overcast
12:36 AM 57.0 °F 54.0 °F 89% 30.19 in 8.0 mi Calm Calm - N/A   Overcast
12:47 AM 57.2 °F 53.6 °F 88% 30.19 in 1.8 mi Calm Calm - N/A   Mostly Cloudy
12:51 AM 55.9 °F 54.0 °F 93% 30.19 in 0.8 mi Calm Calm - N/A   Mist
1:06 AM 57.0 °F 54.0 °F 89% 30.19 in 0.2 mi Calm Calm - N/A Fog Fog
1:16 AM 57.0 °F 55.0 °F 93% 30.19 in 0.5 mi Calm Calm - N/A Fog Fog
1:28 AM 57.0 °F 55.0 °F 93% 30.19 in 1.2 mi Calm Calm - N/A   Overcast
1:43 AM 57.0 °F 54.0 °F 89% 30.19 in 0.5 mi Calm Calm - N/A Fog Fog
1:51 AM 57.0 °F 54.0 °F 89% 30.19 in 0.5 mi Calm Calm - N/A Fog Fog
2:51 AM 57.0 °F 54.0 °F 89% 30.18 in 0.5 mi Calm Calm - N/A Fog Fog
3:04 AM 55.9 °F 54.0 °F 93% 30.19 in 1.5 mi Calm Calm - N/A   Overcast
3:51 AM 55.9 °F 54.0 °F 93% 30.18 in 1.5 mi Calm Calm - N/A   Overcast
4:03 AM 55.9 °F 53.1 °F 90% 30.19 in 3.0 mi NNE 3.5 mph - N/A   Overcast
4:51 AM 55.9 °F 53.1 °F 90% 30.19 in 9.0 mi SSE 3.5 mph - N/A   Overcast
5:51 AM 55.9 °F 52.0 °F 87% 30.19 in 10.0 mi Calm Calm - N/A   Overcast
6:03 AM 55.9 °F 52.0 °F 87% 30.20 in 10.0 mi Calm Calm - N/A   Overcast
6:32 AM 55.9 °F 53.1 °F 90% 30.21 in 9.0 mi Calm Calm - N/A   Overcast
6:51 AM 55.9 °F 53.1 °F 90% 30.22 in 7.0 mi Calm Calm - N/A   Overcast
7:51 AM 55.9 °F 53.1 °F 90% 30.24 in 6.0 mi Calm Calm - N/A   Overcast
8:51 AM 57.9 °F 54.0 °F 87% 30.25 in 9.0 mi NNW 4.6 mph - N/A   Overcast
9:03 AM 57.9 °F 54.0 °F 87% 30.24 in 10.0 mi NW 3.5 mph - N/A   Overcast
9:51 AM 60.1 °F 54.0 °F 80% 30.24 in 10.0 mi Calm Calm - N/A   Mostly Cloudy
10:11 AM 63.0 °F 55.9 °F 78% 30.24 in 10.0 mi WSW 3.5 mph - N/A   Partly Cloudy
10:51 AM 66.9 °F 54.0 °F 63% 30.23 in 10.0 mi Calm Calm - N/A   Clear
11:51 AM 71.1 °F 52.0 °F 51% 30.22 in 10.0 mi Variable 5.8 mph - N/A   Partly Cloudy
12:51 PM 70.0 °F 50.0 °F 49% 30.22 in 10.0 mi Calm Calm - N/A   Partly Cloudy
1:51 PM 71.1 °F 48.9 °F 45% 30.20 in 10.0 mi WSW 3.5 mph - N/A   Scattered Clouds
2:51 PM 75.0 °F 51.1 °F 43% 30.18 in 10.0 mi Variable 3.5 mph - N/A   Clear
3:51 PM 75.0 °F 48.9 °F 40% 30.17 in 10.0 mi NNW 4.6 mph - N/A   Partly Cloudy
4:51 PM 75.9 °F 50.0 °F 40% 30.16 in 10.0 mi North 8.1 mph - N/A   Mostly Cloudy
5:51 PM 73.9 °F 51.1 °F 45% 30.17 in 10.0 mi North 9.2 mph - N/A   Mostly Cloudy
6:51 PM 70.0 °F 52.0 °F 53% 30.18 in 10.0 mi Variable 3.5 mph - N/A   Scattered Clouds
7:51 PM 68.0 °F 52.0 °F 56% 30.19 in 10.0 mi East 3.5 mph - N/A   Overcast
8:51 PM 63.0 °F 53.1 °F 70% 30.21 in 10.0 mi Calm Calm - N/A   Overcast
9:51 PM 61.0 °F 54.0 °F 78% 30.23 in 10.0 mi Calm Calm - N/A   Mostly Cloudy
10:51 PM 60.1 °F 52.0 °F 75% 30.23 in 10.0 mi Calm Calm - N/A   Mostly Cloudy
11:51 PM 57.0 °F 52.0 °F 83% 30.24 in 10.0 mi Calm Calm - N/A   Clear